Time,TemperatureF,DewpointF,PressureIn,WindDirection,WindDirectionDegrees,WindSpeedMPH,WindSpeedGustMPH,Humidity,HourlyPrecipIn,Conditions,Clouds,dailyrainin,SolarRadiationWatts/m^2,SoftwareType,DateUTC
2013-06-25 00:06:00,67.3,66.0,29.88,SW,223,4.0,8.0,95,0.01,,,0.00,0,weatherlink.com 1.10,2013-06-25 04:06:00,
2013-06-25 00:21:00,67.3,66.0,29.87,SW,235,6.0,10.0,95,0.01,,,0.00,0,weatherlink.com 1.10,2013-06-25 04:21:00,
2013-06-25 00:36:00,67.5,66.0,29.88,SW,220,1.0,9.0,94,0.00,,,0.00,0,weatherlink.com 1.10,2013-06-25 04:36:00,
2013-06-25 00:51:00,67.6,66.0,29.89,SW,218,7.0,10.0,94,0.00,,,0.00,0,weatherlink.com 1.10,2013-06-25 04:51:00,
2013-06-25 01:06:00,68.0,65.0,29.89,SW,228,2.0,9.0,91,0.00,,,0.00,0,weatherlink.com 1.10,2013-06-25 05:06:00,
2013-06-25 01:23:00,68.5,66.0,29.88,SW,229,3.0,8.0,90,0.00,,,0.00,0,weatherlink.com 1.10,2013-06-25 05:23:00,
2013-06-25 01:37:00,68.3,65.0,29.87,SW,229,2.0,6.0,90,0.00,,,0.00,0,weatherlink.com 1.10,2013-06-25 05:37:00,
2013-06-25 01:52:00,67.9,65.0,29.88,SW,226,1.0,5.0,90,0.00,,,0.00,0,weatherlink.com 1.10,2013-06-25 05:52:00,
2013-06-25 02:07:00,67.5,65.0,29.88,SW,226,1.0,4.0,91,0.00,,,0.00,0,weatherlink.com 1.10,2013-06-25 06:07:00,
2013-06-25 02:22:00,67.0,65.0,29.87,SW,226,0.0,4.0,92,0.00,,,0.00,0,weatherlink.com 1.10,2013-06-25 06:22:00,
2013-06-25 02:37:00,66.8,65.0,29.87,SW,226,2.0,3.0,93,0.00,,,0.00,0,weatherlink.com 1.10,2013-06-25 06:37:00,
2013-06-25 02:52:00,66.5,65.0,29.87,SW,226,0.0,3.0,94,0.00,,,0.00,0,weatherlink.com 1.10,2013-06-25 06:52:00,
2013-06-25 03:07:00,66.3,65.0,29.87,SW,226,1.0,2.0,94,0.00,,,0.00,0,weatherlink.com 1.10,2013-06-25 07:07:00,
2013-06-25 03:22:00,66.3,65.0,29.86,SW,226,0.0,2.0,94,0.00,,,0.00,0,weatherlink.com 1.10,2013-06-25 07:22:00,
2013-06-25 03:37:00,66.5,65.0,29.86,SW,226,2.0,3.0,94,0.00,,,0.00,0,weatherlink.com 1.10,2013-06-25 07:37:00,
2013-06-25 03:52:00,66.7,65.0,29.86,SW,226,1.0,4.0,94,0.00,,,0.00,0,weatherlink.com 1.10,2013-06-25 07:52:00,
2013-06-25 04:07:00,67.0,65.0,29.85,SSW,208,2.0,6.0,94,0.00,,,0.00,0,weatherlink.com 1.10,2013-06-25 08:07:00,
2013-06-25 04:22:00,67.2,66.0,29.85,SSW,204,1.0,7.0,95,0.00,,,0.00,0,weatherlink.com 1.10,2013-06-25 08:22:00,
2013-06-25 04:37:00,67.7,66.0,29.86,SSW,197,5.0,7.0,95,0.00,,,0.00,0,weatherlink.com 1.10,2013-06-25 08:37:00,
2013-06-25 04:52:00,68.0,67.0,29.86,South,190,6.0,10.0,95,0.00,,,0.00,0,weatherlink.com 1.10,2013-06-25 08:52:00,
2013-06-25 05:07:00,68.6,67.0,29.85,SSW,208,3.0,10.0,95,0.00,,,0.00,0,weatherlink.com 1.10,2013-06-25 09:07:00,
2013-06-25 05:22:00,69.2,68.0,29.85,South,189,1.0,11.0,95,0.00,,,0.00,0,weatherlink.com 1.10,2013-06-25 09:22:00,
2013-06-25 05:37:00,69.6,68.0,29.85,SW,223,0.0,9.0,94,0.00,,,0.00,0,weatherlink.com 1.10,2013-06-25 09:37:00,
2013-06-25 05:52:00,69.8,68.0,29.84,SW,219,5.0,10.0,94,0.00,,,0.00,0,weatherlink.com 1.10,2013-06-25 09:52:00,
2013-06-25 06:07:00,70.3,68.0,29.83,SW,233,3.0,12.0,93,0.00,,,0.00,0,weatherlink.com 1.10,2013-06-25 10:07:00,
2013-06-25 06:22:00,70.2,68.0,29.83,South,188,3.0,13.0,93,0.00,,,0.00,0,weatherlink.com 1.10,2013-06-25 10:22:00,
2013-06-25 06:37:00,70.0,68.0,29.85,SSW,213,8.0,10.0,93,0.00,,,0.00,9,weatherlink.com 1.10,2013-06-25 10:37:00,
2013-06-25 06:52:00,70.0,68.0,29.86,SW,216,4.0,10.0,93,0.00,,,0.00,26,weatherlink.com 1.10,2013-06-25 10:52:00,
2013-06-25 07:07:00,70.0,68.0,29.86,South,187,4.0,7.0,93,0.00,,,0.00,70,weatherlink.com 1.10,2013-06-25 11:07:00,
2013-06-25 07:22:00,70.4,69.0,29.89,North,359,1.0,8.0,94,0.00,,,0.00,37,weatherlink.com 1.10,2013-06-25 11:22:00,
2013-06-25 07:37:00,70.8,69.0,29.88,North,354,1.0,11.0,93,0.00,,,0.00,18,weatherlink.com 1.10,2013-06-25 11:37:00,
2013-06-25 07:52:00,71.1,69.0,29.86,NW,316,0.0,5.0,92,0.00,,,0.00,142,weatherlink.com 1.10,2013-06-25 11:52:00,
2013-06-25 08:07:00,71.7,69.0,29.85,West,263,0.0,3.0,92,0.00,,,0.00,120,weatherlink.com 1.10,2013-06-25 12:07:00,
2013-06-25 08:22:00,72.1,69.0,29.84,SSW,195,5.0,7.0,90,0.00,,,0.00,220,weatherlink.com 1.10,2013-06-25 12:22:00,
2013-06-25 08:37:00,72.5,70.0,29.85,South,181,3.0,3.0,90,0.00,,,0.00,111,weatherlink.com 1.10,2013-06-25 12:37:00,
2013-06-25 08:52:00,72.5,70.0,29.85,SSE,157,2.0,6.0,90,0.00,,,0.00,86,weatherlink.com 1.10,2013-06-25 12:52:00,
2013-06-25 09:07:00,72.8,70.0,29.85,SW,230,0.0,3.0,90,0.00,,,0.00,278,weatherlink.com 1.10,2013-06-25 13:07:00,
2013-06-25 09:22:00,73.4,70.0,29.86,SW,229,3.0,3.0,90,0.00,,,0.00,200,weatherlink.com 1.10,2013-06-25 13:22:00,
2013-06-25 09:37:00,74.2,71.0,29.86,SW,224,0.0,2.0,89,0.00,,,0.00,146,weatherlink.com 1.10,2013-06-25 13:37:00,
2013-06-25 09:52:00,74.6,71.0,29.87,SW,224,0.0,2.0,87,0.00,,,0.00,58,weatherlink.com 1.10,2013-06-25 13:52:00,
2013-06-25 10:07:00,74.4,71.0,29.88,ENE,64,1.0,5.0,88,0.00,,,0.00,56,weatherlink.com 1.10,2013-06-25 14:07:00,
2013-06-25 10:22:00,73.9,71.0,29.87,ENE,68,0.0,4.0,89,0.00,,,0.00,98,weatherlink.com 1.10,2013-06-25 14:22:00,
2013-06-25 10:37:00,74.2,71.0,29.88,ENE,66,4.0,4.0,89,0.00,,,0.00,102,weatherlink.com 1.10,2013-06-25 14:37:00,
2013-06-25 10:52:00,75.1,71.0,29.87,ENE,66,4.0,4.0,88,0.00,,,0.00,380,weatherlink.com 1.10,2013-06-25 14:52:00,
2013-06-25 11:08:00,75.8,72.0,29.87,East,100,1.0,5.0,87,0.01,,,0.01,58,weatherlink.com 1.10,2013-06-25 15:08:00,
2013-06-25 11:23:00,74.8,72.0,29.86,East,100,0.0,2.0,90,0.07,,,0.07,100,weatherlink.com 1.10,2013-06-25 15:23:00,
2013-06-25 11:53:00,74.5,73.0,29.86,East,100,0.0,2.0,94,0.07,,,0.07,264,weatherlink.com 1.10,2013-06-25 15:53:00,
2013-06-25 12:08:00,75.2,73.0,29.86,East,100,0.0,3.0,94,0.06,,,0.07,366,weatherlink.com 1.10,2013-06-25 16:08:00,
2013-06-25 12:23:00,76.1,74.0,29.86,West,259,2.0,5.0,92,0.00,,,0.07,445,weatherlink.com 1.10,2013-06-25 16:23:00,
2013-06-25 12:38:00,77.2,75.0,29.86,WSW,247,4.0,5.0,92,0.00,,,0.07,504,weatherlink.com 1.10,2013-06-25 16:38:00,
2013-06-25 12:53:00,78.3,75.0,29.85,WSW,258,5.0,5.0,90,0.00,,,0.07,707,weatherlink.com 1.10,2013-06-25 16:53:00,
2013-06-25 13:08:00,80.3,76.0,29.84,WSW,245,1.0,7.0,87,0.00,,,0.07,636,weatherlink.com 1.10,2013-06-25 17:08:00,
2013-06-25 13:23:00,81.3,76.0,29.83,SW,235,7.0,9.0,83,0.00,,,0.07,666,weatherlink.com 1.10,2013-06-25 17:23:00,
2013-06-25 13:38:00,82.8,76.0,29.82,NW,305,1.0,7.0,80,0.00,,,0.07,432,weatherlink.com 1.10,2013-06-25 17:38:00,
2013-06-25 13:53:00,83.5,76.0,29.80,SW,229,1.0,8.0,77,0.00,,,0.07,902,weatherlink.com 1.10,2013-06-25 17:53:00,
2013-06-25 14:08:00,84.2,75.0,29.80,WSW,238,5.0,12.0,73,0.00,,,0.07,933,weatherlink.com 1.10,2013-06-25 18:08:00,
2013-06-25 14:23:00,84.9,75.0,29.80,South,190,5.0,11.0,72,0.00,,,0.07,422,weatherlink.com 1.10,2013-06-25 18:23:00,
2013-06-25 14:38:00,85.5,75.0,29.79,SW,217,4.0,10.0,70,0.00,,,0.07,445,weatherlink.com 1.10,2013-06-25 18:38:00,
2013-06-25 14:53:00,85.4,75.0,29.79,WSW,239,3.0,13.0,71,0.00,,,0.07,926,weatherlink.com 1.10,2013-06-25 18:53:00,
2013-06-25 15:08:00,85.3,75.0,29.78,WSW,242,11.0,13.0,70,0.00,,,0.07,373,weatherlink.com 1.10,2013-06-25 19:08:00,
2013-06-25 15:23:00,85.6,75.0,29.77,SW,233,11.0,17.0,70,0.00,,,0.07,863,weatherlink.com 1.10,2013-06-25 19:23:00,
2013-06-25 15:38:00,85.9,74.0,29.77,WSW,245,16.0,17.0,68,0.00,,,0.07,846,weatherlink.com 1.10,2013-06-25 19:38:00,
2013-06-25 15:53:00,86.3,75.0,29.76,SW,222,3.0,17.0,69,0.00,,,0.07,810,weatherlink.com 1.10,2013-06-25 19:53:00,
2013-06-25 16:08:00,86.0,74.0,29.76,SW,218,15.0,17.0,67,0.00,,,0.07,779,weatherlink.com 1.10,2013-06-25 20:08:00,
2013-06-25 16:23:00,86.4,74.0,29.75,SW,233,7.0,18.0,66,0.00,,,0.07,754,weatherlink.com 1.10,2013-06-25 20:23:00,
2013-06-25 16:38:00,87.3,74.0,29.75,WSW,239,10.0,15.0,65,0.00,,,0.07,710,weatherlink.com 1.10,2013-06-25 20:38:00,
2013-06-25 16:53:00,87.1,75.0,29.73,WSW,248,6.0,15.0,67,0.00,,,0.07,656,weatherlink.com 1.10,2013-06-25 20:53:00,
2013-06-25 17:08:00,87.5,74.0,29.74,SSW,197,7.0,10.0,64,0.00,,,0.07,599,weatherlink.com 1.10,2013-06-25 21:08:00,
2013-06-25 17:23:00,87.5,74.0,29.74,West,278,3.0,12.0,65,0.00,,,0.07,645,weatherlink.com 1.10,2013-06-25 21:23:00,
2013-06-25 17:38:00,86.8,75.0,29.73,WSW,238,6.0,12.0,67,0.00,,,0.07,396,weatherlink.com 1.10,2013-06-25 21:38:00,
2013-06-25 17:54:00,86.5,75.0,29.72,SW,235,4.0,15.0,68,0.00,,,0.07,478,weatherlink.com 1.10,2013-06-25 21:54:00,
2013-06-25 18:09:00,86.3,75.0,29.73,WSW,248,6.0,10.0,69,0.00,,,0.07,227,weatherlink.com 1.10,2013-06-25 22:09:00,
2013-06-25 18:24:00,85.6,75.0,29.73,WSW,243,6.0,13.0,70,0.00,,,0.07,160,weatherlink.com 1.10,2013-06-25 22:24:00,
2013-06-25 18:39:00,85.2,75.0,29.72,SW,215,6.0,14.0,71,0.00,,,0.07,176,weatherlink.com 1.10,2013-06-25 22:39:00,
2013-06-25 18:54:00,85.2,75.0,29.73,WSW,255,5.0,11.0,72,0.00,,,0.07,197,weatherlink.com 1.10,2013-06-25 22:54:00,
2013-06-25 19:09:00,85.0,75.0,29.72,SSW,198,7.0,10.0,72,0.00,,,0.07,123,weatherlink.com 1.10,2013-06-25 23:09:00,
2013-06-25 19:24:00,84.7,75.0,29.72,SW,233,5.0,13.0,73,0.00,,,0.07,113,weatherlink.com 1.10,2013-06-25 23:24:00,
2013-06-25 19:39:00,84.9,75.0,29.72,SW,231,6.0,11.0,73,0.00,,,0.07,225,weatherlink.com 1.10,2013-06-25 23:39:00,
2013-06-25 19:54:00,84.5,74.0,29.71,West,260,3.0,21.0,70,0.00,,,0.07,91,weatherlink.com 1.10,2013-06-25 23:54:00,
2013-06-25 20:09:00,83.7,74.0,29.71,West,262,3.0,12.0,73,0.00,,,0.07,54,weatherlink.com 1.10,2013-06-26 00:09:00,
2013-06-25 20:24:00,83.3,73.0,29.71,SW,234,2.0,13.0,72,0.00,,,0.07,44,weatherlink.com 1.10,2013-06-26 00:24:00,
2013-06-25 20:39:00,82.8,73.0,29.71,SW,231,3.0,10.0,72,0.00,,,0.07,25,weatherlink.com 1.10,2013-06-26 00:39:00,
2013-06-25 20:54:00,82.2,73.0,29.70,WSW,249,4.0,9.0,73,0.00,,,0.07,5,weatherlink.com 1.10,2013-06-26 00:54:00,
2013-06-25 21:09:00,81.9,73.0,29.72,SW,225,14.0,21.0,74,0.00,,,0.07,0,weatherlink.com 1.10,2013-06-26 01:09:00,
2013-06-25 21:24:00,81.8,69.0,29.73,WNW,291,6.0,30.0,66,0.00,,,0.07,0,weatherlink.com 1.10,2013-06-26 01:24:00,
2013-06-25 21:39:00,77.9,69.0,29.74,NW,322,6.0,12.0,74,0.00,,,0.07,0,weatherlink.com 1.10,2013-06-26 01:39:00,
2013-06-25 21:54:00,74.4,68.0,29.75,NNW,348,7.0,14.0,80,0.00,,,0.07,0,weatherlink.com 1.10,2013-06-26 01:54:00,
2013-06-25 22:09:00,72.9,67.0,29.74,NNW,346,4.0,12.0,81,0.00,,,0.07,0,weatherlink.com 1.10,2013-06-26 02:09:00,
2013-06-25 22:24:00,72.2,66.0,29.75,NNW,332,1.0,8.0,81,0.00,,,0.07,0,weatherlink.com 1.10,2013-06-26 02:24:00,
2013-06-25 22:39:00,71.7,66.0,29.77,WNW,303,4.0,7.0,81,0.00,,,0.07,0,weatherlink.com 1.10,2013-06-26 02:39:00,
2013-06-25 22:54:00,71.2,65.0,29.77,WNW,302,2.0,5.0,81,0.00,,,0.07,0,weatherlink.com 1.10,2013-06-26 02:54:00,
2013-06-25 23:09:00,70.8,65.0,29.77,WNW,302,2.0,4.0,83,0.00,,,0.07,0,weatherlink.com 1.10,2013-06-26 03:09:00,
2013-06-25 23:24:00,70.8,65.0,29.76,SSE,152,1.0,5.0,83,0.00,,,0.07,0,weatherlink.com 1.10,2013-06-26 03:24:00,
2013-06-25 23:39:00,70.8,65.0,29.77,South,172,2.0,6.0,83,0.00,,,0.07,0,weatherlink.com 1.10,2013-06-26 03:39:00,
2013-06-25 23:54:00,70.8,66.0,29.77,SE,129,3.0,6.0,84,0.00,,,0.07,0,weatherlink.com 1.10,2013-06-26 03:54:00,